Flag for Germany

Past Weather in 49°36'23"N, 9°28'21"E, Germany — Yesterday and Last 2 Weeks

Now
63 °F

Light rain. Broken clouds.


Feels Like: 63 °F
Forecast: 71 / 56 °F
Wind: 12 mph from North

Location: Niederstetten

Current Time: Aug 3, 2020 at 2:26:47 pm

Latest Report: Aug 3, 2020 at 1:20 pm


Visibility: 6 mi

Pressure: 29.89 "Hg

Humidity: 83%

Dew Point: 57 °F

Location of 49°36'23"N, 9°28'21"ELocation

Past Weather in 49°36'23"N, 9°28'21"E — Graph

°F

49°36'23"N, 9°28'21"E Temperature Yesterday

Maximum temperature yesterday: 72 °F (at 4:20 am)
Minimum temperature yesterday: 64 °F (at 10:20 pm)
Average temperature yesterday: 69 °F

High & Low Weather Summary for the Past Weeks

 TemperatureHumidityPressure
High91 °F (Jul 31, 4:20 pm)100% (Jul 27, 4:20 am)30.21 "Hg (Jul 27, 4:20 am)
Low48 °F (Jul 22, 5:20 am)20% (Jul 30, 4:20 pm)29.86 "Hg (Jul 26, 2:20 am)
Average70 °F52%30.02 "Hg
* Reported Jul 19 12:20 pm — Aug 3 12:20 pm, 49°36'23"N, 9°28'21"E. Weather by CustomWeather, © 2020

Note: Actual official high and low records may vary slightly from our data, if they occured in-between our weather recording intervals... More about our weather records

49°36'23"N, 9°28'21"E Weather History for the Previous 24 Hours

Scroll right to see more
 ConditionsComfort  
Time TempWeatherWind HumidityBarometerVisibility
12:20 pm
Mon, Aug 3
68 °FPartly sunny.7 mph69%29.89 "HgN/A
11:20 am68 °FBroken clouds.8 mph69%29.89 "HgN/A
10:20 am66 °FPartly sunny.7 mph73%29.89 "HgN/A
9:20 am64 °FBroken clouds.6 mph78%29.92 "HgN/A
8:20 am63 °FScattered clouds.3 mph83%29.92 "HgN/A
7:20 am61 °FBroken clouds.5 mph88%29.92 "HgN/A
6:20 am59 °FBroken clouds.6 mph94%29.89 "HgN/A
5:20 am61 °FPartly cloudy.8 mph83%29.89 "HgN/A
4:20 am63 °FPassing clouds.7 mph83%29.92 "HgN/A
3:20 am64 °FPartly cloudy.5 mph88%29.92 "HgN/A
2:20 am64 °FPassing clouds.5 mph88%29.95 "HgN/A
1:20 am64 °FPartly cloudy.No wind88%29.95 "HgN/A
12:20 am64 °FPartly cloudy.3 mph88%29.95 "HgN/A
11:20 pm
Sun, Aug 2
66 °FPartly cloudy.3 mph88%29.95 "HgN/A
10:20 pm64 °FPartly cloudy.5 mph94%29.95 "HgN/A
9:20 pm66 °FPartly cloudy.3 mph78%29.95 "HgN/A
8:20 pm68 °FPartly sunny.1 mph73%29.95 "HgN/A
7:20 pm68 °FScattered showers. Partly sunny.3 mph78%29.95 "HgN/A
6:20 pm72 °FPartly sunny.No wind57%29.95 "HgN/A
5:20 pm72 °FPartly sunny.6 mph65%29.95 "HgN/A
4:20 pm68 °FBroken clouds.7 mph73%29.95 "HgN/A
3:20 pm70 °FPartly sunny.7 mph83%29.95 "HgN/A
2:20 pm66 °FThunderstorms. Mostly cloudy.7 mph94%29.98 "Hg5 mi
Weather by CustomWeather, © 2020

See weather overview